Greensboro, GA

7:33 PM EDT on June 26, 2017 (GMT -0400)
Greensboro

Weather History for K3J7 - January, 2014

Change the Weather History Date:

Wednesday, January 8, 2014

  Actual Average (KDBN) Record (KDBN)
Temperature  
Mean Temperature 30 °F -  
Max Temperature 46 °F 58 °F 80 °F (1946)
Min Temperature 14 °F 34 °F 12 °F (1970)
Degree Days  
Heating Degree Days 35    
Moisture  
Dew Point 9 °F    
Average Humidity 50    
Maximum Humidity 93    
Minimum Humidity 18    
Precipitation  
Precipitation 0.00 in - - ()
Sea Level Pressure  
Sea Level Pressure 30.46 in    
Wind  
Wind Speed 0 mph (ESE)    
Max Wind Speed 5 mph    
Max Gust Speed -    
Visibility 10 miles    
Events      
Averages and records for this station are not official NWS values.
T = Trace of Precipitation, MM = Missing Value Source: NWS Daily Summary

Daily Weather History Graph

Daily Weather History Graph

Search for Another Location

Airport or City:

Trip Planner

Search our weather history database for the weather conditions in past years. The results will help you decide how hot, cold, wet, or windy it might be!

Date:

Astronomy

Jan. 08, 2014 Rise Set
Actual Time 7:37 AM EST 5:41 PM EST
Civil Twilight 7:10 AM EST 6:08 PM EST
Nautical Twilight 6:39 AM EST 6:39 PM EST
Astronomical Twilight 6:09 AM EST 7:09 PM EST
Moon 12:24 PM EST (1/8) 12:52 AM EST (1/8)
Length of Visible Light 10h 57m
Length of Day
10h 03m
First Quarter, 56% of the Moon is Illuminated
Jan 8
First Quarter
Jan 15
Full
Jan 24
Last Quarter
Jan 30
New
Feb 6
First Quarter

Hourly Weather History & Observations

Time (EST) Temp. Windchill Dew Point Humidity Pressure Visibility Wind Dir Wind Speed Gust Speed Precip Events Conditions
12:15 AM 21.2 °F - 6.8 °F 54% 30.45 in 10.0 mi Calm Calm - N/A   Clear
12:35 AM 19.4 °F - 5.0 °F 54% 30.45 in 10.0 mi Calm Calm - N/A   Clear
12:55 AM 19.4 °F - 8.6 °F 63% 30.44 in 10.0 mi Calm Calm - N/A   Clear
1:15 AM 19.4 °F - 10.4 °F 68% 30.45 in 10.0 mi Calm Calm - N/A   Clear
1:35 AM 17.6 °F - 12.2 °F 79% 30.45 in 10.0 mi Calm Calm - N/A   Clear
1:55 AM 17.6 °F - 12.2 °F 79% 30.45 in 10.0 mi Calm Calm - N/A   Clear
2:15 AM 17.6 °F - 12.2 °F 79% 30.45 in 10.0 mi Calm Calm - N/A   Clear
2:35 AM 17.6 °F - 12.2 °F 79% 30.45 in 10.0 mi Calm Calm - N/A   Clear
2:55 AM 17.6 °F - 12.2 °F 79% 30.45 in 10.0 mi Calm Calm - N/A   Clear
3:15 AM 17.6 °F - 12.2 °F 79% 30.45 in 10.0 mi Calm Calm - N/A   Clear
3:35 AM 17.6 °F - 12.2 °F 79% 30.45 in 10.0 mi Calm Calm - N/A   Clear
3:55 AM 17.6 °F - 12.2 °F 79% 30.45 in 10.0 mi Calm Calm - N/A   Clear
4:15 AM 17.6 °F - 14.0 °F 86% 30.45 in 10.0 mi Calm Calm - N/A   Clear
4:35 AM 15.8 °F - 12.2 °F 86% 30.45 in 10.0 mi Calm Calm - N/A   Clear
4:55 AM 17.6 °F - 14.0 °F 86% 30.45 in 10.0 mi Calm Calm - N/A   Clear
5:15 AM 15.8 °F - 12.2 °F 86% 30.45 in 10.0 mi Calm Calm - N/A   Clear
5:35 AM 14.0 °F - 12.2 °F 93% 30.45 in 10.0 mi Calm Calm - N/A   Clear
5:55 AM 14.0 °F - 12.2 °F 93% 30.45 in 10.0 mi Calm Calm - N/A   Clear
6:15 AM 14.0 °F - 12.2 °F 93% 30.45 in 10.0 mi Calm Calm - N/A   Clear
6:35 AM 14.0 °F - 12.2 °F 93% 30.46 in 10.0 mi Calm Calm - N/A   Clear
6:55 AM 14.0 °F - 12.2 °F 93% 30.47 in 10.0 mi Calm Calm - N/A   Clear
7:15 AM 14.0 °F - 12.2 °F 93% 30.48 in 10.0 mi Calm Calm - N/A   Clear
7:35 AM 15.8 °F - 12.2 °F 86% 30.48 in 10.0 mi Calm Calm - N/A   Clear
7:55 AM 15.8 °F - 12.2 °F 86% 30.48 in 10.0 mi Calm Calm - N/A   Clear
8:15 AM 17.6 °F - 14.0 °F 86% 30.48 in 10.0 mi Calm Calm - N/A   Clear
8:35 AM 19.4 °F - 17.6 °F 93% 30.49 in 10.0 mi Calm Calm - N/A   Clear
8:55 AM 23.0 °F - 10.4 °F 59% 30.49 in 10.0 mi Calm Calm - N/A   Clear
9:15 AM 24.8 °F - 12.2 °F 59% 30.50 in 10.0 mi Calm Calm - N/A   Clear
9:35 AM 26.6 °F - 12.2 °F 55% 30.51 in 10.0 mi Calm Calm - N/A   Clear
9:55 AM 28.4 °F 23.3 °F 12.2 °F 51% 30.52 in 10.0 mi East 4.6 mph - N/A   Clear
10:15 AM 30.2 °F 25.4 °F 10.4 °F 44% 30.52 in 10.0 mi ESE 4.6 mph - N/A   Clear
10:35 AM 32.0 °F 28.7 °F 8.6 °F 38% 30.52 in 10.0 mi East 3.5 mph - N/A   Clear
10:55 AM 33.8 °F - 5.0 °F 30% 30.52 in 10.0 mi Calm Calm - N/A   Clear
11:15 AM 33.8 °F - 5.0 °F 30% 30.51 in 10.0 mi Calm Calm - N/A   Clear
11:35 AM 35.6 °F - 6.8 °F 30% 30.51 in 10.0 mi Calm Calm - N/A   Clear
11:55 AM 37.4 °F - 6.8 °F 28% 30.50 in 10.0 mi Calm Calm - N/A   Clear
12:15 PM 37.4 °F - 5.0 °F 26% 30.48 in 10.0 mi Calm Calm - N/A   Clear
12:35 PM 39.2 °F - 5.0 °F 24% 30.48 in 10.0 mi Calm Calm - N/A   Clear
12:55 PM 39.2 °F - 5.0 °F 24% 30.46 in 10.0 mi Calm Calm - N/A   Clear
1:15 PM 41.0 °F - 5.0 °F 23% 30.44 in 10.0 mi Calm Calm - N/A   Clear
1:35 PM 42.8 °F - 8.6 °F 25% 30.43 in 10.0 mi Calm Calm - N/A   Clear
1:55 PM 42.8 °F 41.1 °F 6.8 °F 23% 30.43 in 10.0 mi SSE 3.5 mph - N/A   Clear
2:15 PM 44.6 °F - 6.8 °F 21% 30.42 in 10.0 mi Calm Calm - N/A   Clear
2:35 PM 44.6 °F - 6.8 °F 21% 30.42 in 10.0 mi Calm Calm - N/A   Clear
2:55 PM 46.4 °F 44.3 °F 8.6 °F 22% 30.43 in 10.0 mi East 4.6 mph - N/A   Clear
3:15 PM 44.6 °F - 5.0 °F 20% 30.43 in 10.0 mi Calm Calm - N/A   Clear
3:35 PM 46.4 °F - 6.8 °F 20% 30.43 in 10.0 mi Calm Calm - N/A   Clear
3:55 PM 46.4 °F 45.2 °F 6.8 °F 20% 30.42 in 10.0 mi ESE 3.5 mph - N/A   Clear
4:15 PM 46.4 °F - 5.0 °F 18% 30.42 in 10.0 mi Calm Calm - N/A   Clear
4:35 PM 44.6 °F 43.1 °F 5.0 °F 20% 30.43 in 10.0 mi East 3.5 mph - N/A   Clear
4:55 PM 44.6 °F - 6.8 °F 21% 30.43 in 10.0 mi Calm Calm - N/A   Clear
5:15 PM 42.8 °F 41.1 °F 5.0 °F 21% 30.43 in 10.0 mi ESE 3.5 mph - N/A   Clear
5:35 PM 42.8 °F - 6.8 °F 23% 30.43 in 10.0 mi Calm Calm - N/A   Clear
5:55 PM 39.2 °F - 6.8 °F 26% 30.42 in 10.0 mi Calm Calm - N/A   Clear
6:15 PM 39.2 °F - 5.0 °F 24% 30.43 in 10.0 mi Calm Calm - N/A   Clear
6:35 PM 37.4 °F - 8.6 °F 30% 30.43 in 10.0 mi Calm Calm - N/A   Clear
6:55 PM 37.4 °F - 6.8 °F 28% 30.43 in 10.0 mi Calm Calm - N/A   Clear
7:15 PM 35.6 °F - 6.8 °F 30% 30.44 in 10.0 mi Calm Calm - N/A   Clear
7:35 PM 33.8 °F - 8.6 °F 35% 30.45 in 10.0 mi Calm Calm - N/A   Clear
7:55 PM 33.8 °F - 8.6 °F 35% 30.45 in 10.0 mi Calm Calm - N/A   Clear
8:15 PM 33.8 °F - 6.8 °F 32% 30.46 in 10.0 mi Calm Calm - N/A   Clear
8:35 PM 33.8 °F - 8.6 °F 35% 30.46 in 10.0 mi Calm Calm - N/A   Clear
8:55 PM 32.0 °F - 10.4 °F 41% 30.46 in 10.0 mi Calm Calm - N/A   Clear
9:15 PM 33.8 °F - 10.4 °F 38% 30.46 in 5.0 mi Calm Calm - N/A   Haze
9:35 PM 32.0 °F - 10.4 °F 41% 30.45 in 10.0 mi Calm Calm - N/A   Clear
9:55 PM 32.0 °F - 12.2 °F 44% 30.45 in 10.0 mi Calm Calm - N/A   Clear
10:15 PM 32.0 °F - 10.4 °F 41% 30.45 in 10.0 mi Calm Calm - N/A   Clear
10:35 PM 33.8 °F - 8.6 °F 35% 30.45 in 10.0 mi Calm Calm - N/A   Clear
10:55 PM 32.0 °F - 8.6 °F 38% 30.45 in 10.0 mi Calm Calm - N/A   Clear
11:15 PM 32.0 °F - 10.4 °F 41% 30.45 in 10.0 mi Calm Calm - N/A   Clear
11:35 PM 32.0 °F - 10.4 °F 41% 30.45 in 10.0 mi Calm Calm - N/A   Clear
11:55 PM 32.0 °F - 12.2 °F 44% 30.45 in 10.0 mi Calm Calm - N/A   Scattered Clouds